Regional Weather Roundup
Issued by NWS Charleston, SC

Current Version | Previous Version | Graphics & Text | Print | Product List | Glossary On
Versions: 1 2 3 4 5 6 7 8 9 10 11 12 13 14 15 16 17 18 19 20 21 22 23 24 25 26 27 28 29 30 31 32 33 34 35 36 37 38 39 40 41 42 43 44 45 46 47 48 49 50
000 ASUS42 KCHS 202227 RWRCHS Regional Weather Roundup National Weather Service Charleston SC 600 PM EDT SUN MAY 20 2018 NOTE: "fair" indicates few or no clouds below 12,000 feet with no significant weather and/or obstructions to visibility. Not all stations are quality controlled. Use data with caution, especially dewpoint observations. SCZ027-030-031-034>040-042>050-202300- ...Southeast South Carolina... CITY SKY/WX TMP DP RH WIND PRES REMARKS N Charleston CLOUDY 78 68 71 SW8 30.13S Waterfront Prk N/A 78 70 76 SW6 29.98S Mount Pleasant FAIR 79 70 73 S5 30.14R Johns Island FAIR 77 72 83 SW8 30.14S Pinopolis N/A 79 72 78 SW7 30.06S Moncks Corner MOCLDY 75 70 83 SW8 30.13S Summerville RAIN 73 72 94 S3 30.15R Beaufort MCAS CLOUDY 77 73 87 S6 30.14F Beaufort Arpt MOCLDY 75 70 83 CALM 30.14S Hilton Head Is DRIZZLE 75 70 83 S6 30.15F Walterboro RAIN 73 72 94 CALM 30.15S Allendale FAIR 75 72 88 VRB3 30.13S ...Southern Midlands and Pee Dee... CITY SKY/WX TMP DP RH WIND PRES REMARKS Georgetown FAIR 77 73 88 SW7 30.14S Kingstree MOCLDY 77 72 83 S5 30.12S THUNDER Orangeburg LGT RAIN 76 71 85 SW3 30.14R Barnwell FAIR 77 72 83 S7 30.13S Aiken LGT RAIN 72 72 100 S8 30.15F Manning CLOUDY 73 68 83 SW7 30.13R THUNDER Columbia CLOUDY 79 74 84 S6 30.11R Sumter CLOUDY 78 69 73 S7 30.10S Florence CLOUDY 79 70 74 W7 30.11S Myrtle Beach FAIR 77 71 82 S15 30.13F N Myrtle Beach FAIR 78 71 79 S14 30.13S $$ GAZ063-065-086>088-099>101-113>116-118-119-134>141-150-202300- ...Southeast Georgia... CITY SKY/WX TMP DP RH WIND PRES REMARKS Savannah Arpt LGT RAIN 74 70 87 S7 30.16R Hunter AAF FAIR 73 69 88 W3 30.12 Fort Stewart FAIR 73 70 88 CALM 30.14R Statesboro LGT RAIN 74 71 89 SW5 30.15S Sylvania FAIR 76 73 88 SW3 30.17R Claxton LGT RAIN 73 70 92 CALM 30.16S ...CSRA, Central and far Southeast Georgia... CITY SKY/WX TMP DP RH WIND PRES REMARKS Thomson PTSUNNY 73 69 86 NW6 30.18R Augusta-Bush LGT RAIN 76 72 87 S7 30.11S Augusta-Daniel FAIR 77 70 79 SE7 30.12F Swainsboro DRIZZLE 72 64 78 S12 30.19R Vidalia LGT RAIN 68 63 83 CALM 30.17S Eastman DRIZZLE 73 64 73 S8 30.18S Hazlehurst LGT RAIN 72 66 83 CALM 30.15S Alma LGT RAIN 73 70 90 NE3 30.14R Waycross LGT RAIN 74 71 91 E6 30.14S Jesup MOCLDY 73 70 88 CALM 30.15S Baxley LGT RAIN 70 70 100 CALM 30.15S Brunswick PTSUNNY 73 68 83 NE5 30.15S Saint Simons FAIR 76 71 85 NE5 30.13S $$ SCZ027-028-034-036>038-045-046-048>050-GAZ119-141-202300- ...Lake and Supplemental Coastal Observations... STATION/POSITION TIME TEMP WIND PRES WAVE SWELL AIR SEA DIR/SP/G HT/PER HT/PER/DIR (UTC) (F) (DEG/KT/KT) (MB) (FT/S) (FT/S/D) Winyah Bay 2145 79 230/ 9 1020.0S Lake Murray 2120 78 190/ 5/ 7 1019.0 ACE Basin NERRS 2145 77 CALM 1021.0S Fort Pulaski 2200 73 78 270/ 4/ 5 1021.1 Sapelo Island 2200 75 40/ 3 1020.0 $$ ANZ835-935-AMZ111-154-330-350-352-354-370-450-454-472-202300- ...C-MAN and Buoy Observations... STATION/POSITION TIME TEMP WIND PRES WAVE SWELL AIR SEA DIR/SP/G HT/PER HT/PER/DIR (UTC) (F) (DEG/KT/KT) (MB) (FT/S) (FT/S/D) Buoy 41004 2210 74 200/ 8/ 10 1020.9 Buoy 41008 2150 74 76 20/ 2/ 4 1020.4R 3/ 8 3/110/ 8 Folly Beach CMAN 2200 75 210/ 12/ 13 1021.2S Capers Nearshore 2208 76 76 230/ 12/ 16 1021.2F Fripp Nearshore 2208 74 78 230/ 6/ 10 1020.5S STATION/POSITION TIME TEMP WIND PRES WAVE SWELL AIR SEA DIR/SP/G HT/PER HT/PER/DIR (UTC) (F) (DEG/KT/KT) (MB) (FT/S) (FT/S/D) 5E St. Marys GA 2200 75 N/A 3/ 9 Frying Pan Buoy 2210 75 200/ 14/ 17 1020.9 Buoy 41025 2210 75 76 200/ 17/ 21 1020.5 Cape Lookout NC 2200 220/ 10/ 14 1020.6F Buoy 41002 2210 77 170/ 12/ 16 1022.3 Buoy 41010 2210 78 78 110/ 16/ 19 1020.1 St Augustine FL 2200 76 76 130/ 5/ 5 1019.5F $$

USA.gov is the U.S. government's official web portal to all federal, state and local government web resources and services.